Regional Weather Roundup
Issued by NWS

Home | Current Version | Previous Version | Graphics & Text | Print | Product List | Glossary On
Versions: 1 2 3 4 5 6 7 8 9 10 11 12 13 14 15 16 17 18 19 20 21 22 23 24 25 26 27 28 29 30 31 32 33 34 35 36 37 38 39 40 41 42 43 44 45 46 47 48 49 50
000
ASUS43 KLMK 182110
RWRKY
KENTUCKY REGIONAL WEATHER ROUNDUP
NATIONAL WEATHER SERVICE LOUISVILLE KY
400 PM EST WED JAN 18 2017

NOTE "FAIR" INDICATES FEW OR NO CLOUDS BELOW 12,000 FEET
WITH NO SIGNIFICANT WEATHER AND/OR OBSTRUCTIONS TO VISIBILITY.

KYZ001>023-026-027-061>063-070>075-182200-
WESTERN AND SOUTH CENTRAL KENTUCKY

CITY           SKY/WX    TMP DP  RH WIND       PRES   REMARKS
PADUCAH        CLOUDY    46  38  73 E3        30.15F
HENDERSON      CLOUDY    43  36  75 CALM      30.16F
OWENSBORO      CLOUDY    43  36  76 S6        30.17F
HOPKINSVILLE   CLOUDY    47  40  76 E6        30.15F
BOWLING GREEN  MOSUNNY   49  37  63 CALM      30.17S
GLASGOW        MOSUNNY   49  38  64 CALM      30.16R
$$

KYZ024-025-028>034-038-045-046-053-182200-
NORTH CENTRAL KENTUCKY

CITY           SKY/WX    TMP DP  RH WIND       PRES   REMARKS
LOUISVILLE/SDF CLOUDY    45  35  68 N3        30.16F
LOUISVILLE/LOU CLOUDY    44  35  70 CALM      30.17F
FORT KNOX      CLOUDY    43  35  73 CALM      30.16S
$$

KYZ035>037-039>044-047>052-055>060-089>105-182200-
NORTHEAST KENTUCKY

CITY           SKY/WX    TMP DP  RH WIND       PRES   REMARKS
LEXINGTON      CLOUDY    44  36  73 SW9       30.16S
COVINGTON      CLOUDY    41  36  82 SW6       30.14F
FRANKFORT      CLOUDY    44  35  70 W3        30.15F
$$

KYZ054-064>069-076>088-106>120-182200-
SOUTHEAST KENTUCKY

CITY           SKY/WX    TMP DP  RH WIND       PRES   REMARKS
JACKSON        CLOUDY    44  37  76 NW3       30.14S
LONDON         MOSUNNY   50  36  58 N5        30.13F
SOMERSET       CLOUDY    48  36  61 CALM      30.15F
MIDDLESBORO    SUNNY     52  39  60 NE9       30.12F
MONTICELLO     CLOUDY    50  38  63 W3        30.16F
$$





USA.gov is the U.S. government's official web portal to all federal, state and local government web resources and services.